Rawlins, WY

3:10 PM MST on February 24, 2017 (GMT -0700)
Rawlins Municipal

Weather History for KRWL - December, 2011

Change the Weather History Date:

Thursday, December 22, 2011

  Actual Average Record
Temperature  
Mean Temperature 8 °F 21 °F  
Max Temperature 20 °F 30 °F 50 °F (1998)
Min Temperature -5 °F 12 °F -32 °F (1990)
Degree Days  
Heating Degree Days 57 44  
Month to date heating degree days 1049 955  
Since 1 July heating degree days 2919 3061  
Cooling Degree Days 0 0  
Month to date cooling degree days 0 0  
Year to date cooling degree days 242 186  
Moisture  
Dew Point 6 °F    
Average Humidity 77    
Maximum Humidity 92    
Minimum Humidity 62    
Precipitation  
Precipitation 0.00 in 0.01 in 0.12 in (1972)
Month to date precipitation 0.11 0.30  
Year to date precipitation 9.77 9.12  
Sea Level Pressure  
Sea Level Pressure 30.38 in    
Wind  
Wind Speed 9 mph (NNE)    
Max Wind Speed 25 mph    
Max Gust Speed 31 mph    
Visibility 10 miles    
Events      
T = Trace of Precipitation, MM = Missing Value Source: NWS Daily Summary

Daily Weather History Graph

Daily Weather History Graph

Search for Another Location

Airport or City:

Trip Planner

Search our weather history database for the weather conditions in past years. The results will help you decide how hot, cold, wet, or windy it might be!

Date:

Astronomy

Dec. 22, 2011 Rise Set
Actual Time 7:33 AM MST 4:41 PM MST
Civil Twilight 7:01 AM MST 5:13 PM MST
Nautical Twilight 6:26 AM MST 5:48 PM MST
Astronomical Twilight 5:52 AM MST 6:22 PM MST
Moon 5:19 AM MST (12/22) 2:54 PM MST (12/22)
Length of Visible Light 10h 11m
Length of Day
9h 08m
Waning Crescent, 5% of the Moon is Illuminated
Dec 22
Waning Crescent
Dec 24
New
Dec 31
First Quarter
Jan 9
Full
Jan 16
Last Quarter

Hourly Weather History & Observations

Time (MST) Temp. Windchill Dew Point Humidity Pressure Visibility Wind Dir Wind Speed Gust Speed Precip Events Conditions
12:21 AM 17.6 °F 1.3 °F 12.2 °F 79% 30.06 in 10.0 mi NE 19.6 mph 25.3 mph 0.00 in   Overcast
1:53 AM 18.0 °F 1.3 °F 12.0 °F 78% 30.21 in 10.0 mi NE 20.7 mph 28.8 mph N/A   Overcast
2:53 AM 17.1 °F -0.6 °F 10.0 °F 74% 30.28 in 10.0 mi NE 23.0 mph 28.8 mph N/A   Partly Cloudy
3:53 AM 16.0 °F -0.9 °F 10.0 °F 77% 30.30 in 10.0 mi NE 19.6 mph 27.6 mph N/A   Clear
4:53 AM 14.0 °F -0.8 °F 10.0 °F 84% 30.33 in 10.0 mi NE 13.8 mph - N/A   Partly Cloudy
5:53 AM 12.9 °F -2.8 °F 9.0 °F 84% 30.36 in 10.0 mi NE 15.0 mph - N/A   Partly Cloudy
7:53 AM 10.9 °F -5.4 °F 8.1 °F 88% 30.40 in 10.0 mi NNE 15.0 mph - N/A   Partly Cloudy
8:41 AM 10.4 °F 0.8 °F 6.8 °F 85% 30.23 in 10.0 mi NW 5.8 mph - N/A   Mostly Cloudy
8:53 AM 12.0 °F -0.4 °F 7.0 °F 80% 30.41 in 10.0 mi North 9.2 mph - N/A   Overcast
9:33 AM 15.8 °F 2.1 °F 10.4 °F 79% 30.23 in 10.0 mi NE 12.7 mph - N/A   Scattered Clouds
9:53 AM 17.1 °F 3.6 °F 10.0 °F 74% 30.41 in 10.0 mi NE 12.7 mph - N/A   Partly Cloudy
10:53 AM 18.0 °F 4.8 °F 9.0 °F 68% 30.41 in 10.0 mi NE 12.7 mph 19.6 mph N/A   Scattered Clouds
11:53 AM 19.0 °F 11.1 °F 9.0 °F 65% 30.39 in 10.0 mi NE 5.8 mph - N/A   Partly Cloudy
1:53 PM 19.0 °F 9.0 °F 10.0 °F 68% 30.36 in 10.0 mi NE 8.1 mph - N/A   Clear
4:53 PM 6.1 °F -4.3 °F 1.0 °F 80% 30.48 in 10.0 mi NW 5.8 mph - N/A   Clear
5:53 PM -0.9 °F - -6.0 °F 79% 30.54 in 10.0 mi Calm Calm - N/A   Clear
7:53 PM 1.0 °F - -4.0 °F 79% 30.55 in 10.0 mi Calm Calm - N/A   Clear
8:53 PM -2.9 °F -11.2 °F -7.1 °F 82% 30.58 in 10.0 mi WNW 3.5 mph - N/A   Clear
9:53 PM 1.0 °F - -4.0 °F 79% 30.54 in 10.0 mi Calm Calm - N/A   Clear
10:53 PM 10.0 °F -4.5 °F 3.9 °F 76% 30.50 in 10.0 mi WSW 11.5 mph 20.7 mph N/A   Clear
11:53 PM 10.0 °F 3.6 °F 1.9 °F 70% 30.50 in 10.0 mi Variable 3.5 mph - N/A   Clear